This demonstration page uses our WeatherBlox Daily Observations layout. Learn more.

Left ArrowRight Arrow

40.97296, -117.73568

Hourly Observations for January 9, 2022

Temp ( °F °C ) Dew Point ( °F °C ) Humidity (%) Winds ( mph kmh ) Pressure ( in mb ) Visibility ( mi km ) Precip ( " mm )
12:56 am 00:56 Clear 30 -1.1 23 -5 75 75 ENE 12 19 30.37 1029 10 16 0.00 0.00
1:56 am 01:56 Clear 29 -1.7 23 -5 78 78 ENE 14 22 30.39 1029 10 16 0.00 0.00
2:56 am 02:56 Clear 28 -2.2 22 -5.6 78 78 ENE 13 20 30.40 1030 10 16 0.00 0.00
3:56 am 03:56 Clear 29 -1.7 22 -5.6 75 75 ESE 13 20 30.39 1029 10 16 0.00 0.00
4:56 am 04:56 Clear 28 -2.2 21 -6.1 75 75 ENE 12 19 30.42 1030 10 16 0.00 0.00
5:56 am 05:56 Clear 27 -2.8 21 -6.1 78 78 ENE 12 19 30.46 1032 10 16 0.00 0.00
6:56 am 06:56 Clear 27 -2.8 21 -6.1 78 78 ENE 14 22 30.48 1032 10 16 0.00 0.00
7:56 am 07:56 Sunny 28 -2.2 21 -6.1 75 75 ENE 12 19 30.50 1033 10 16 0.00 0.00
8:56 am 08:56 Sunny 32 0 22 -5.6 66 66 ENE 10 17 30.51 1033 10 16 0.00 0.00
9:56 am 09:56 Sunny 36 2.2 24 -4.4 62 62 ENE 10 17 30.53 1034 10 16 0.00 0.00
10:56 am 10:56 Sunny 39 3.9 24 -4.4 55 55 ENE 8 13 30.53 1034 10 16 0.00 0.00
11:56 am 11:56 Sunny 42 5.6 25 -3.9 51 51 NNE 10 17 30.50 1033 10 16 0.00 0.00
12:56 pm 12:56 Sunny 43 6.1 25 -3.9 49 49 NE 14 22 30.48 1032 10 16 0.00 0.00
1:56 pm 13:56 Sunny 44 6.7 25 -3.9 47 47 NE 10 17 30.48 1032 10 16 0.00 0.00
2:56 pm 14:56 Sunny 44 6.7 25 -3.9 47 47 NE 10 17 30.47 1032 10 16 0.00 0.00
3:56 pm 15:56 Sunny 44 6.7 25 -3.9 47 47 VRB 5 7 30.47 1032 10 16 0.00 0.00
4:56 pm 16:56 Clear 37 2.8 24 -4.4 59 59 NE 10 17 30.50 1033 10 16 0.00 0.00
5:56 pm 17:56 Clear 36 2.2 23 -5 59 59 NE 9 15 30.53 1034 10 16 0.00 0.00
6:56 pm 18:56 Clear 34 1.1 24 -4.4 67 67 NE 9 15 30.54 1034 10 16 0.00 0.00
7:56 pm 19:56 Clear 31 -0.6 24 -4.4 76 76 E 8 13 30.56 1035 10 16 0.00 0.00
8:56 pm 20:56 Clear 30 -1.1 24 -4.4 79 79 E 5 7 30.56 1035 10 16 0.00 0.00
9:56 pm 21:56 Clear 29 -1.7 23 -5 78 78 ESE 5 7 30.56 1035 10 16 0.00 0.00
10:56 pm 22:56 Clear 28 -2.2 23 -5 81 81 SSE 6 9 30.55 1035 10 16 0.00 0.00
11:56 pm 23:56 Clear 28 -2.2 22 -5.6 78 78 E 6 9 30.54 1034 10 16 0.00 0.00

Powered by AerisWeather